This is the latest recevied weather packets stored in our database for station/object KC1OEK-13. If no packets are shown the sender has not sent any weather packets the latest 10 day(s).
| Time | Temp. | Humidity | Pressure | Rain* | Wind** | Luminosity | Snow |
|---|---|---|---|---|---|---|---|
| 1777895872 | 6.67° C | 79% | 1014.3 hPa | 0 mm | - | 194 W/m² | - |
| 1777895570 | 5.56° C | 81% | 1014.3 hPa | 0 mm | - | 125 W/m² | - |
| 1777895267 | 5° C | 83% | 1014.6 hPa | 0 mm | - | 66 W/m² | - |
| 1777894965 | 4.44° C | 84% | 1014.6 hPa | 0 mm | - | 104 W/m² | - |
| 1777894662 | 3.89° C | 88% | 1014.5 hPa | 0 mm | - | 61 W/m² | - |
| 1777894358 | 3.89° C | 90% | 1014.6 hPa | 0 mm | - | 58 W/m² | - |
| 1777894056 | 3.33° C | 93% | 1014.6 hPa | 0 mm | - | 66 W/m² | - |
| 1777893752 | 2.78° C | 94% | 1014.5 hPa | 0 mm | - | 84 W/m² | - |
| 1777893449 | 2.22° C | 94% | 1014.6 hPa | 0 mm | - | 51 W/m² | - |
| 1777893146 | 2.22° C | 96% | 1014.6 hPa | 0 mm | - | 49 W/m² | - |
| 1777892842 | 1.67° C | 96% | 1014.6 hPa | 0 mm | - | 43 W/m² | - |
| 1777892539 | 1.67° C | 96% | 1014.5 hPa | 0 mm | - | 39 W/m² | - |
| 1777892234 | 1.11° C | 96% | 1014.4 hPa | 0 mm | - | 37 W/m² | - |
| 1777891931 | 1.11° C | 96% | 1014.4 hPa | 0 mm | - | 35 W/m² | - |
| 1777891629 | 1.11° C | 96% | 1014.6 hPa | 0 mm | - | 33 W/m² | - |
| 1777891324 | 1.11° C | 97% | 1014.4 hPa | 0 mm | - | 30 W/m² | - |
| 1777891020 | 0.56° C | 97% | 1014.5 hPa | 0 mm | - | 28 W/m² | - |
| 1777890714 | 0.56° C | 97% | 1014.5 hPa | 0 mm | - | 25 W/m² | - |
| 1777890410 | 0.56° C | 97% | 1014.4 hPa | 0 mm | - | 22 W/m² | - |
| 1777890106 | 0.56° C | 97% | 1014.4 hPa | 0 mm | - | 19 W/m² | - |
| 1777889804 | 0° C | 97% | 1014.3 hPa | 0 mm | - | 16 W/m² | - |
| 1777889501 | 0° C | 97% | 1014.5 hPa | 0 mm | - | 14 W/m² | - |
| 1777889198 | 0° C | 96% | 1014.3 hPa | 0 mm | - | 11 W/m² | - |
| 1777888897 | 0° C | 96% | 1014.6 hPa | 0 mm | - | 8 W/m² | - |
| 1777888592 | 0° C | 96% | 1014.2 hPa | 0 mm | - | 6 W/m² | - |
* Rain latest hour (hover to see other rain measurements)
** Current wind speed in m/s (hover to see current wind gust speed)